Hickory, NC

11:55 AM EDT on April 23, 2017 (GMT -0400)
Hickory Regional

Weather History for KHKY - November, 2013

Change the Weather History Date:

Saturday, November 30, 2013

  Actual Average Record
Temperature  
Mean Temperature 36 °F -  
Max Temperature 45 °F 52 °F 71 °F (1970)
Min Temperature 28 °F 33 °F 14 °F (1976)
Degree Days  
Heating Degree Days 28    
Moisture  
Dew Point 21 °F    
Average Humidity 60    
Maximum Humidity 75    
Minimum Humidity 37    
Precipitation  
Precipitation 0.00 in - - ()
Sea Level Pressure  
Sea Level Pressure 30.51 in    
Wind  
Wind Speed 2 mph (NNE)    
Max Wind Speed 7 mph    
Max Gust Speed -    
Visibility 10 miles    
Events      
Averages and records for this station are not official NWS values.
T = Trace of Precipitation, MM = Missing Value Source: NWS Daily Summary

Daily Weather History Graph

Daily Weather History Graph

Search for Another Location

Airport or City:

Trip Planner

Search our weather history database for the weather conditions in past years. The results will help you decide how hot, cold, wet, or windy it might be!

Date:

Astronomy

Nov. 30, 2013 Rise Set
Actual Time 7:16 AM EST 5:12 PM EST
Civil Twilight 6:48 AM EST 5:40 PM EST
Nautical Twilight 6:16 AM EST 6:11 PM EST
Astronomical Twilight 5:45 AM EST 6:42 PM EST
Moon 4:30 AM EST (11/30) 3:31 PM EST (11/30)
Length of Visible Light 10h 51m
Length of Day
9h 55m
Waning Crescent, 7% of the Moon is Illuminated
Nov 30
Waning Crescent
Dec 2
New
Dec 9
First Quarter
Dec 17
Full
Dec 25
Last Quarter

Hourly Weather History & Observations

Time (EST) Temp. Windchill Dew Point Humidity Pressure Visibility Wind Dir Wind Speed Gust Speed Precip Events Conditions
12:53 AM 30.9 °F 27.5 °F 23.0 °F 72% 30.58 in 10.0 mi North 3.5 mph - N/A   Clear
1:53 AM 30.9 °F - 21.9 °F 69% 30.58 in 10.0 mi Calm Calm - N/A   Clear
2:53 AM 28.9 °F 25.2 °F 21.0 °F 72% 30.59 in 10.0 mi North 3.5 mph - N/A   Clear
3:53 AM 30.0 °F - 21.0 °F 69% 30.58 in 10.0 mi Calm Calm - N/A   Clear
4:53 AM 28.0 °F - 21.0 °F 75% 30.59 in 10.0 mi Calm Calm - N/A   Clear
5:53 AM 28.0 °F 24.2 °F 19.9 °F 72% 30.60 in 10.0 mi North 3.5 mph - N/A   Clear
6:53 AM 28.0 °F - 19.0 °F 69% 30.62 in 10.0 mi Calm Calm - N/A   Clear
7:53 AM 28.0 °F - 21.0 °F 75% 30.62 in 10.0 mi Calm Calm - N/A   Clear
8:53 AM 32.0 °F 27.5 °F 21.9 °F 66% 30.62 in 10.0 mi North 4.6 mph - N/A   Clear
9:53 AM 35.1 °F 31.0 °F 21.9 °F 59% 30.63 in 10.0 mi NE 4.6 mph - N/A   Clear
10:53 AM 37.9 °F 34.4 °F 21.0 °F 51% 30.61 in 10.0 mi NNE 4.6 mph - N/A   Clear
11:53 AM 39.9 °F 35.1 °F 19.9 °F 45% 30.57 in 10.0 mi NE 6.9 mph - N/A   Clear
12:53 PM 43.0 °F 39.5 °F 19.9 °F 40% 30.52 in 10.0 mi ENE 5.8 mph - N/A   Clear
1:53 PM 43.0 °F 41.3 °F 19.9 °F 40% 30.47 in 10.0 mi North 3.5 mph - N/A   Clear
2:53 PM 45.0 °F 43.5 °F 19.9 °F 37% 30.45 in 10.0 mi Variable 3.5 mph - N/A   Clear
3:53 PM 45.0 °F - 19.9 °F 37% 30.43 in 10.0 mi Calm Calm - N/A   Clear
4:53 PM 42.1 °F - 19.0 °F 40% 30.41 in 10.0 mi Calm Calm - N/A   Clear
5:53 PM 39.0 °F - 19.9 °F 46% 30.41 in 10.0 mi Calm Calm - N/A   Clear
6:53 PM 37.0 °F 34.5 °F 21.9 °F 54% 30.42 in 10.0 mi North 3.5 mph - N/A   Clear
7:53 PM 36.0 °F - 21.0 °F 55% 30.41 in 9.0 mi Calm Calm - N/A   Clear
8:53 PM 32.0 °F - 23.0 °F 69% 30.40 in 10.0 mi Calm Calm - N/A   Clear
9:53 PM 30.9 °F - 23.0 °F 72% 30.38 in 10.0 mi Calm Calm - N/A   Clear
10:53 PM 28.9 °F - 21.9 °F 75% 30.37 in 7.0 mi Calm Calm - N/A   Clear
11:53 PM 30.0 °F - 21.9 °F 72% 30.35 in 9.0 mi Calm Calm - N/A   Clear